Weather History for Pipestone, MN

Change the Weather History Date:

Wednesday, January 29, 2014

  Actual Average Record
Temperature  
Mean Temperature 16 °F -  
Max Temperature 37 °F 25 °F 37 °F (2014)
Min Temperature -5 °F 9 °F -14 °F (2004)
Degree Days  
Heating Degree Days 49    
Moisture  
Dew Point 6 °F    
Average Humidity 66    
Maximum Humidity 84    
Minimum Humidity 51    
Precipitation  
Precipitation 0.01 in - - ()
Sea Level Pressure  
Sea Level Pressure 29.73 in    
Wind  
Wind Speed 9 mph (SW)    
Max Wind Speed 22 mph    
Max Gust Speed 24 mph    
Visibility 10 miles    
Events      
Averages and records for this station are not official NWS values.
T = Trace of Precipitation, MM = Missing Value Source: NWS Daily Summary

Daily Weather History Graph

Daily Weather History Graph

Search for Another Location

Airport:

Trip Planner

Search our weather history database for the weather conditions in past years. The results will help you decide how hot, cold, wet, or windy it might be!

Date:

Astronomy

Jan. 29, 2014 Rise Set
Actual Time 7:45 AM CST 5:31 PM CST
Civil Twilight 7:14 AM CST 6:02 PM CST
Nautical Twilight 6:40 AM CST 6:37 PM CST
Astronomical Twilight 6:06 AM CST 7:11 PM CST
Moon 6:23 AM CST (1/29) 4:32 PM CST (1/29)
Length of Visible Light 10h 47m
Length of Day
9h 45m
Waning Crescent, 2% of the Moon is Illuminated
Jan 29
Waning Crescent
Jan 30
New
Feb 6
First Quarter
Feb 14
Full
Feb 22
Last Quarter

Hourly Weather History & Observations

Time (CST) Temp. Windchill Dew Point Humidity Pressure Visibility Wind Dir Wind Speed Gust Speed Precip Events Conditions
12:13 AM -5.8 °F -16.7 °F -11.2 °F 77% 30.05 in 10.0 mi WSW 4.6 mph - N/A   Clear
12:34 AM -5.8 °F -18.4 °F -9.4 °F 84% 30.05 in 10.0 mi SW 5.8 mph - N/A   Clear
12:53 AM -5.8 °F -18.4 °F -9.4 °F 84% 30.04 in 10.0 mi WSW 5.8 mph - N/A   Clear
1:13 AM -4.0 °F -19.0 °F -9.4 °F 78% 30.03 in 10.0 mi WSW 8.1 mph - N/A   Clear
1:33 AM -2.2 °F -14.2 °F -9.4 °F 71% 30.04 in 10.0 mi WSW 5.8 mph - N/A   Clear
1:53 AM -4.0 °F -17.8 °F -9.4 °F 78% 30.03 in 10.0 mi SW 6.9 mph - N/A   Clear
2:13 AM -5.8 °F -19.9 °F -9.4 °F 84% 30.02 in 10.0 mi SW 6.9 mph - N/A   Clear
2:33 AM -5.8 °F -18.4 °F -11.2 °F 77% 30.02 in 10.0 mi SW 5.8 mph - N/A   Clear
2:53 AM -5.8 °F -19.9 °F -11.2 °F 77% 30.01 in 10.0 mi SW 6.9 mph - N/A   Clear
3:13 AM -5.8 °F -21.2 °F -11.2 °F 77% 30.00 in 10.0 mi SW 8.1 mph - N/A   Clear
3:33 AM -2.2 °F -18.0 °F -9.4 °F 71% 29.99 in 10.0 mi SW 9.2 mph - N/A   Clear
3:53 AM -2.2 °F -18.0 °F -9.4 °F 71% 29.98 in 10.0 mi SW 9.2 mph - N/A   Clear
4:14 AM -2.2 °F -15.6 °F -9.4 °F 71% 29.97 in 10.0 mi SW 6.9 mph - N/A   Clear
4:33 AM -2.2 °F -18.0 °F -9.4 °F 71% 29.96 in 10.0 mi SW 9.2 mph - N/A   Clear
4:53 AM -2.2 °F -16.8 °F -9.4 °F 71% 29.96 in 10.0 mi WSW 8.1 mph - N/A   Clear
5:14 AM -2.2 °F -16.8 °F -7.6 °F 78% 29.95 in 10.0 mi SW 8.1 mph - N/A   Clear
5:33 AM -4.0 °F -17.8 °F -9.4 °F 78% 29.94 in 10.0 mi SW 6.9 mph - N/A   Clear
5:53 AM -2.2 °F -16.8 °F -9.4 °F 71% 29.92 in 10.0 mi SW 8.1 mph - N/A   Clear
6:13 AM -2.2 °F -18.0 °F -9.4 °F 71% 29.91 in 10.0 mi SW 9.2 mph - N/A   Clear
6:33 AM -2.2 °F -16.8 °F -9.4 °F 71% 29.90 in 10.0 mi SW 8.1 mph - N/A   Clear
6:53 AM -2.2 °F -18.0 °F -7.6 °F 78% 29.89 in 10.0 mi SW 9.2 mph - N/A   Clear
7:13 AM -2.2 °F -18.0 °F -7.6 °F 78% 29.88 in 10.0 mi SW 9.2 mph - N/A   Clear
7:33 AM -0.4 °F -16.7 °F -7.6 °F 72% 29.87 in 10.0 mi SSW 10.4 mph - N/A   Clear
7:53 AM 1.4 °F -14.5 °F -7.6 °F 66% 29.87 in 10.0 mi SSW 10.4 mph - N/A   Clear
8:13 AM 1.4 °F -16.1 °F -5.8 °F 72% 29.85 in 10.0 mi SSW 12.7 mph - N/A   Clear
8:33 AM 3.2 °F -13.9 °F -4.0 °F 72% 29.85 in 10.0 mi SSW 12.7 mph - N/A   Clear
8:53 AM 5.0 °F -11.6 °F -4.0 °F 66% 29.85 in 10.0 mi SSW 12.7 mph - N/A   Clear
9:13 AM 6.8 °F -10.0 °F -2.2 °F 67% 29.84 in 10.0 mi SSW 13.8 mph - N/A   Clear
9:33 AM 8.6 °F -8.3 °F -2.2 °F 62% 29.83 in 10.0 mi SSW 15.0 mph - N/A   Clear
9:53 AM 10.4 °F -5.4 °F -0.4 °F 62% 29.82 in 10.0 mi SSW 13.8 mph - N/A   Clear
10:13 AM 12.2 °F -3.7 °F 1.4 °F 62% 29.81 in 10.0 mi SSW 15.0 mph - N/A   Clear
10:33 AM 12.2 °F -2.5 °F 3.2 °F 67% 29.80 in 10.0 mi SSW 12.7 mph - N/A   Clear
10:54 AM 15.8 °F 0.3 °F 3.2 °F 58% 29.79 in 10.0 mi SSW 16.1 mph - N/A   Clear
11:13 AM 15.8 °F 0.3 °F 6.8 °F 68% 29.77 in 10.0 mi SSW 16.1 mph - N/A   Clear
11:33 AM 17.6 °F 3.2 °F 6.8 °F 63% 29.76 in 10.0 mi SSW 15.0 mph - N/A   Clear
11:54 AM 19.4 °F 4.1 °F 8.6 °F 63% 29.73 in 10.0 mi SSW 18.4 mph - N/A   Clear
12:13 PM 21.2 °F 6.8 °F 10.4 °F 63% 29.71 in 10.0 mi SSW 17.3 mph - N/A   Clear
12:33 PM 23.0 °F 8.7 °F 12.2 °F 63% 29.68 in 10.0 mi SSW 18.4 mph - N/A   Clear
12:54 PM 24.8 °F 11.9 °F 14.0 °F 64% 29.67 in 10.0 mi SSW 16.1 mph - N/A   Clear
1:13 PM 28.4 °F 15.8 °F 15.8 °F 59% 29.65 in 10.0 mi SSW 18.4 mph 24.2 mph N/A   Clear
1:33 PM 28.4 °F 15.8 °F 15.8 °F 59% 29.64 in 10.0 mi SSW 18.4 mph - N/A   Clear
1:54 PM 30.2 °F 17.1 °F 17.6 °F 60% 29.62 in 10.0 mi SSW 21.9 mph - N/A   Clear
2:13 PM 32.0 °F 19.8 °F 17.6 °F 55% 29.62 in 10.0 mi SW 20.7 mph - N/A   Clear
2:34 PM 32.0 °F 20.5 °F 19.4 °F 60% 29.61 in 10.0 mi SW 18.4 mph - N/A   Clear
2:53 PM 33.8 °F 23.9 °F 21.2 °F 60% 29.60 in 10.0 mi SW 15.0 mph - N/A   Clear
3:13 PM 33.8 °F 24.3 °F 21.2 °F 60% 29.58 in 10.0 mi SSW 13.8 mph - N/A   Clear
3:34 PM 35.6 °F 26.6 °F 21.2 °F 56% 29.58 in 10.0 mi SW 13.8 mph - N/A   Clear
3:53 PM 35.6 °F 27.5 °F 21.2 °F 56% 29.57 in 10.0 mi SW 11.5 mph - N/A   Clear
4:13 PM 37.4 °F 29.8 °F 21.2 °F 52% 29.58 in 10.0 mi WSW 11.5 mph - N/A   Clear
4:34 PM 35.6 °F 28.6 °F 21.2 °F 56% 29.57 in 10.0 mi WSW 9.2 mph - 0.01 in   Clear
4:53 PM 33.8 °F 26.4 °F 21.2 °F 60% 29.58 in 10.0 mi WSW 9.2 mph - N/A   Clear
5:13 PM 33.8 °F 27.0 °F 21.2 °F 60% 29.57 in 10.0 mi SW 8.1 mph - N/A   Clear
5:34 PM 30.2 °F 22.6 °F 21.2 °F 69% 29.57 in 10.0 mi SW 8.1 mph - N/A   Clear
5:53 PM 28.4 °F 20.4 °F 19.4 °F 69% 29.56 in 10.0 mi SW 8.1 mph - N/A   Clear
6:13 PM 30.2 °F 22.6 °F 17.6 °F 60% 29.56 in 10.0 mi SW 8.1 mph - N/A   Clear
6:34 PM 26.6 °F 20.0 °F 17.6 °F 69% 29.56 in 10.0 mi SW 5.8 mph - N/A   Clear
6:53 PM 26.6 °F 20.0 °F 17.6 °F 69% 29.56 in 10.0 mi SW 5.8 mph - N/A   Clear
7:13 PM 24.8 °F 16.9 °F 15.8 °F 69% 29.56 in 10.0 mi SSW 6.9 mph - N/A   Clear
7:34 PM 28.4 °F 22.2 °F 15.8 °F 59% 29.53 in 10.0 mi SSW 5.8 mph - N/A   Clear
7:53 PM 30.2 °F 22.6 °F 14.0 °F 51% 29.53 in 10.0 mi South 8.1 mph - N/A   Clear
8:13 PM 26.6 °F 16.8 °F 14.0 °F 59% 29.52 in 10.0 mi SSW 10.4 mph - N/A   Clear
8:34 PM 28.4 °F 19.1 °F 14.0 °F 55% 29.50 in 10.0 mi South 10.4 mph - N/A   Clear
8:53 PM 30.2 °F 25.4 °F 14.0 °F 51% 29.50 in 10.0 mi SE 4.6 mph - N/A   Clear
9:13 PM 26.6 °F 19.1 °F 14.0 °F 59% 29.49 in 10.0 mi South 6.9 mph - N/A   Scattered Clouds
9:33 PM 30.2 °F 21.9 °F 15.8 °F 55% 29.48 in 10.0 mi South 9.2 mph - N/A   Mostly Cloudy
9:53 PM 30.2 °F 21.3 °F 15.8 °F 55% 29.47 in 10.0 mi South 10.4 mph - N/A   Overcast
10:14 PM 30.2 °F 21.3 °F 15.8 °F 55% 29.46 in 10.0 mi South 10.4 mph - N/A   Mostly Cloudy
10:33 PM 30.2 °F 21.3 °F 17.6 °F 60% 29.45 in 10.0 mi South 10.4 mph - N/A   Mostly Cloudy
10:53 PM 28.4 °F 18.5 °F 17.6 °F 64% 29.44 in 10.0 mi South 11.5 mph - N/A   Scattered Clouds
11:14 PM 30.2 °F 20.2 °F 17.6 °F 60% 29.44 in 10.0 mi South 12.7 mph - N/A   Mostly Cloudy
11:33 PM 30.2 °F 20.2 °F 17.6 °F 60% 29.43 in 10.0 mi South 12.7 mph - N/A   Overcast
11:53 PM 30.2 °F 20.2 °F 19.4 °F 64% 29.42 in 10.0 mi South 12.7 mph - N/A   Overcast